CST,Max TemperatureF,Mean TemperatureF,Min TemperatureF,Max Dew PointF,MeanDew PointF,Min DewpointF,Max Humidity, Mean Humidity, Min Humidity, Max Sea Level PressureIn, Mean Sea Level PressureIn, Min Sea Level PressureIn, Max VisibilityMiles, Mean VisibilityMiles, Min VisibilityMiles, Max Wind SpeedMPH, Mean Wind SpeedMPH, Max Gust SpeedMPH,PrecipitationIn, CloudCover, Events, WindDirDegrees
2013-1-1,17,9,1,7,1,-2,85,69,49,30.32,30.24,30.17,10,10,10,10,5,,0.00,0,,295
2013-1-2,28,16,3,25,14,0,92,80,68,30.21,30.12,30.06,10,10,4,9,4,,0.00,3,Snow,227
2013-1-3,28,18,8,25,16,5,92,77,59,30.40,30.33,30.21,10,10,7,16,6,22,0.00,5,,307
2013-1-4,39,24,10,21,15,7,92,75,45,30.35,30.25,30.17,10,10,10,13,3,,0.00,0,,204
2013-1-5,42,28,14,30,21,10,93,75,57,30.17,30.09,29.98,10,10,7,20,5,28,0.00,3,,237
2013-1-6,37,26,15,19,15,10,80,67,41,30.34,30.26,30.17,10,10,10,17,9,25,0.00,1,,246
2013-1-7,48,34,21,27,21,16,93,66,37,30.18,30.06,29.98,10,10,10,20,8,25,0.00,0,,197
2013-1-8,51,35,19,30,25,18,93,70,41,30.14,29.96,29.84,10,10,10,22,6,30,0.00,0,,209
2013-1-9,50,36,21,32,25,19,93,77,43,30.43,30.33,30.14,10,10,7,6,1,,0.00,0,,188
2013-1-10,42,33,24,36,29,18,93,74,42,30.36,30.00,29.70,10,8,0,12,4,20,0.12,6,Fog-Rain,141
2013-1-11,53,44,33,45,40,28,100,83,50,29.71,29.57,29.46,10,7,0,23,8,33,0.01,4,Fog,180
2013-1-12,33,24,12,28,10,1,81,61,46,30.11,30.02,29.72,10,10,10,24,13,30,0.00,2,,310
2013-1-13,21,14,8,5,2,0,79,60,39,30.35,30.21,30.10,10,10,10,14,9,21,0.00,2,,308
2013-1-14,28,14,1,10,4,-2,86,69,31,30.49,30.40,30.35,10,10,10,8,1,,0.00,0,,223
2013-1-15,33,20,8,16,9,3,92,65,32,30.38,30.26,30.10,10,10,10,9,2,,0.00,0,,192
2013-1-16,51,33,15,28,21,9,79,64,41,30.21,30.02,29.95,10,10,10,15,7,18,0.00,2,,251
2013-1-17,42,30,17,27,19,10,93,71,41,30.46,30.38,30.22,10,10,7,12,5,,0.00,0,,315
2013-1-18,57,39,21,28,25,18,93,64,29,30.32,30.07,29.92,10,10,7,24,8,32,0.00,0,,198
2013-1-19,55,40,23,28,24,9,86,58,26,30.32,30.02,29.88,10,10,10,20,9,26,0.00,0,,283
2013-1-20,21,16,10,9,6,1,79,64,42,30.41,30.37,30.32,10,10,10,15,8,21,0.00,3,,353
2013-1-21,15,10,5,7,-6,-11,79,50,38,30.46,30.40,30.37,10,10,10,18,7,25,0.00,6,Snow,321
2013-1-22,19,14,8,9,3,-4,79,66,52,30.41,30.34,30.28,10,9,2,6,1,,0.01,4,Snow,66
2013-1-23,35,20,6,18,8,-2,85,64,41,30.51,30.27,30.18,10,10,10,16,4,22,0.00,0,,346
2013-1-24,19,11,3,9,-3,-8,67,52,35,30.56,30.40,30.20,10,10,10,13,9,16,0.00,1,,101
2013-1-25,46,27,8,21,13,3,85,61,32,30.25,30.17,30.12,10,10,10,13,3,20,0.00,0,,311
2013-1-26,44,29,14,18,12,5,86,53,29,30.30,30.20,30.08,10,10,10,14,6,18,0.00,0,,131
2013-1-27,46,39,32,45,34,16,93,84,44,30.07,29.85,29.71,10,4,0,16,8,20,0.29,8,Fog-Rain-Snow,164
2013-1-28,57,44,33,55,40,32,94,93,87,29.88,29.76,29.56,10,2,0,14,4,,0.00,7,Fog,123
2013-1-29,60,45,30,55,33,27,93,86,77,29.69,29.60,29.52,10,8,2,16,12,28,0.09,7,Rain-Snow,344
2013-1-30,30,22,15,27,15,9,86,73,59,29.93,29.76,29.54,10,6,0,28,16,34,0.05,7,Snow,319
2013-1-31,15,8,0,10,-3,-11,79,61,48,30.43,30.18,29.93,10,10,7,23,10,34,0.00,2,,316